Location: Karwodrza
(49.9217°N, 21.0454°E)
Time: 17:49:26
(UTC+01:00)

ISS - Pass Details

Date: 25 January 2019
Orbit: 403 x 411 km, 51.6° (Epoch: 20 February)

Event Time Altitude Azimuth Distance (km) Brightness Sun altitude
Rises 16:53:03 0° 196° (SSW) 2,321 0.6 -5.9°
Reaches altitude 10° 16:55:54 10° 169° (SSE) 1,468 -0.8 -6.3°
Maximum altitude 16:57:37 14° 137° (SE) 1,278 -1.5 -6.6°
Drops below altitude 10° 16:59:20 10° 106° (ESE) 1,476 -1.5 -6.9°
Enters shadow 17:00:14 - 94° (E) 1,703 -1.2 -7.0°
